Wind_Speed
20 21 23 25 25 24 23 23 23 24 25 26 28 29 30 29 29 29 29 29 29 28 28 30 28 25 23 23 22 22 23 22 21 19 18 18 18 19 19 18 18 18 18 19 19 19 18 18 18 17 17 16 16 15 15 16 16 16 16 17 15 15 16 16 17 18 19 20 20 19 19 19 20 21 20 20 21 20 20 19 18 18 19 19 19
22 22 23 24 26 24 24 23 23 24 25 26 28 29 30 29 29 29 29 29 28 28 29 28 25 23 22 22 21 22 24 22 20 19 19 19 18 18 18 18 18 19 20 20 19 19 19 18 18 17 17 16 15 15 15 15 15 16 15 14 13 15 17 16 17 18 19 19 20 19 19 19 20 22 21 21 21 21 19 19 19 18 19 19 19
23 23 23 25 27 25 25 25 24 24 25 26 27 29 29 29 29 29 28 28 28 29 28 26 24 23 21 20 21 23 23 22 21 19 19 19 18 18 18 19 19 20 20 20 20 20 19 18 18 17 16 16 15 15 15 14 14 15 14 13 14 16 17 17 17 19 20 18 18 18 19 19 20 21 21 20 20 21 21 21 20 19 20 19 19
22 23 22 24 27 27 26 26 25 25 26 26 27 28 28 28 28 28 28 28 29 28 27 25 24 22 20 19 20 23 22 20 21 19 19 19 19 18 18 19 20 20 20 20 20 20 19 18 18 17 16 15 16 16 15 14 14 13 13 13 15 16 17 18 20 20 20 18 15 16 16 17 18 19 20 19 18 19 20 20 20 18 18 18 18
22 22 22 23 24 26 26 26 26 26 26 27 27 27 27 27 27 27 28 28 28 26 26 25 23 21 20 19 19 21 20 20 20 18 18 18 19 18 18 19 20 20 19 19 20 19 19 18 17 16 15 15 15 16 15 15 14 14 14 14 15 16 17 18 20 21 19 17 15 13 13 15 16 17 17 16 16 16 17 18 18 17 16 16 16
23 22 23 22 22 25 27 26 26 27 27 27 28 27 27 27 27 26 26 27 26 25 25 24 22 21 20 18 18 19 20 20 19 18 18 19 19 18 19 19 19 19 19 20 20 19 19 18 17 16 15 14 14 14 14 14 14 15 14 14 14 15 16 17 19 20 18 15 14 13 13 13 14 15 14 13 13 13 13 15 16 17 16 15 15
23 22 22 21 22 25 27 27 27 27 27 28 28 28 28 27 27 26 26 25 24 23 23 22 21 21 21 19 18 19 19 20 20 19 18 19 19 19 19 19 19 19 20 20 20 19 18 17 16 15 14 14 13 13 13 12 13 15 14 14 13 13 14 15 17 18 16 13 13 13 13 13 13 14 13 13 13 11 11 11 14 16 15 14 14
21 21 21 20 22 26 27 27 27 27 27 27 28 28 27 27 26 26 25 24 24 22 21 21 21 21 21 19 19 20 20 19 21 21 19 18 19 19 19 18 18 19 20 18 17 17 16 15 15 14 13 12 12 12 12 11 11 14 14 14 14 13 14 15 15 15 14 12 12 12 12 12 12 12 13 14 12 11 11 10 12 14 14 14 14
21 21 20 20 23 28 27 27 26 26 27 27 28 27 26 26 26 25 25 24 23 21 20 20 21 21 20 19 20 21 20 20 21 21 19 18 18 19 18 17 16 17 17 15 16 16 14 14 13 13 12 11 11 11 11 11 11 12 13 14 13 15 17 16 14 12 12 12 12 11 11 12 12 11 11 12 10 10 10 10 12 13 13 14 14
21 21 20 19 24 28 27 27 26 26 27 27 27 27 26 25 25 25 24 23 22 21 20 20 20 19 19 19 19 19 20 21 19 19 19 19 18 18 18 17 16 16 16 15 15 14 14 13 12 12 12 11 10 11 11 11 11 11 13 13 14 16 18 18 14 11 12 13 13 13 13 13 13 13 12 11 10 11 11 10 12 13 13 14 14
21 20 19 20 24 27 26 26 26 26 27 26 27 27 26 25 24 24 22 22 22 22 21 19 19 18 19 20 19 18 19 20 20 19 19 20 20 18 17 17 16 15 15 15 14 13 12 12 12 11 11 12 11 11 10 10 11 11 12 13 15 17 17 16 13 11 13 14 14 14 15 15 14 14 13 14 13 13 13 12 12 14 14 14 15
20 20 20 21 24 26 26 25 26 26 26 25 25 25 25 24 23 22 21 22 22 21 20 19 18 18 18 19 18 17 17 18 21 20 19 21 21 19 18 17 16 15 15 14 13 12 11 11 11 10 11 12 11 11 10 10 11 11 12 13 16 17 16 16 12 11 13 13 14 15 15 16 16 15 14 14 14 14 14 13 13 14 14 15 15
21 20 21 22 22 25 26 25 26 26 25 24 24 24 24 24 23 22 21 22 21 20 19 19 18 17 17 17 17 16 17 18 20 20 19 20 20 19 19 18 16 15 14 13 12 12 11 10 10 10 10 10 10 11 11 10 11 12 12 14 15 16 16 15 11 11 12 13 14 14 15 15 15 14 13 13 14 14 14 13 13 13 14 14 14
21 21 22 23 21 23 25 25 26 25 24 23 24 23 23 24 24 23 22 22 21 20 20 19 19 18 18 18 18 18 18 18 19 20 19 19 19 18 18 19 16 13 12 13 11 10 10 10 9 9 9 9 10 12 12 11 11 11 12 14 15 16 17 14 11 12 12 13 14 14 15 15 15 14 14 14 13 13 13 13 13 14 14 13 13
21 22 22 22 21 21 23 24 24 23 23 23 24 24 24 24 24 23 21 21 21 21 19 19 19 19 19 19 19 19 18 19 19 19 18 17 18 17 16 17 16 12 11 12 11 10 9 9 9 9 8 10 12 12 12 12 11 11 12 13 14 15 14 10 10 11 11 12 13 14 15 15 15 14 14 14 13 13 13 12 13 14 14 13 13
21 22 22 21 22 21 20 22 23 22 23 23 23 24 24 23 22 22 21 21 21 20 19 18 18 19 19 19 19 18 17 18 18 17 16 16 17 16 16 15 14 12 12 12 11 10 10 9 9 8 8 10 12 13 12 11 11 11 11 12 13 14 14 11 9 10 11 11 12 13 14 14 14 13 14 13 13 13 12 13 13 13 13 13 13
21 21 22 22 22 21 20 20 24 23 22 22 22 22 21 21 21 21 21 21 20 19 18 17 17 18 18 18 18 16 17 18 17 15 15 15 14 14 14 15 14 12 12 12 11 11 10 10 9 8 8 10 13 13 11 11 10 10 11 11 13 15 17 13 10 10 11 11 12 12 13 13 14 14 13 13 13 13 13 13 13 13 13 13 14
20 20 22 23 22 21 20 20 22 23 22 21 20 20 20 20 20 20 21 21 20 19 18 17 18 18 18 17 16 16 17 17 16 15 13 12 11 11 12 13 14 12 11 11 11 10 10 11 10 8 8 10 13 12 11 10 9 10 10 11 13 16 17 13 10 11 11 11 12 12 13 13 13 13 13 12 12 12 12 12 12 12 12 13 13
21 20 21 22 22 20 20 20 21 21 21 20 19 19 19 20 19 19 19 20 20 18 17 17 17 18 17 17 17 17 17 18 17 15 13 12 11 11 11 12 13 13 12 11 11 10 10 11 10 9 8 10 12 13 11 10 8 9 9 11 13 16 16 12 10 11 11 11 12 12 13 13 13 12 12 12 12 12 12 11 12 12 13 12 12
20 20 20 20 21 20 20 20 20 21 20 19 19 19 19 19 19 19 19 20 19 18 17 16 16 17 17 17 17 17 17 18 17 15 14 13 13 13 13 14 14 13 12 12 11 11 11 11 9 9 9 9 11 12 12 10 8 8 8 11 14 15 12 10 10 11 11 12 13 13 13 13 12 11 11 12 12 12 11 10 11 11 12 12 11
19 20 20 20 19 20 20 19 19 20 19 19 19 20 19 18 18 18 19 20 20 19 18 16 16 16 16 17 16 16 15 16 16 15 16 15 14 13 13 13 13 12 12 12 12 12 12 10 9 10 9 9 12 13 12 10 9 8 8 11 14 11 9 9 10 11 11 12 13 13 14 13 12 12 12 11 12 11 10 10 10 10 11 11 11
19 20 20 20 19 19 19 18 19 20 19 19 18 18 19 18 16 17 19 20 20 19 17 16 16 17 18 17 16 14 13 15 16 15 16 16 14 12 11 11 12 12 12 12 12 13 13 11 10 10 10 9 12 13 11 11 9 8 9 11 10 8 8 9 10 10 11 11 12 14 14 12 11 12 12 11 11 10 9 9 10 10 10 10 10
19 19 19 20 19 18 18 17 18 19 18 18 17 18 19 18 17 17 18 18 18 18 16 15 15 17 18 17 15 14 14 16 17 16 15 15 14 12 12 11 11 12 12 11 11 13 13 11 10 10 11 10 11 12 11 11 10 9 8 8 8 8 9 9 9 10 11 11 11 13 13 10 10 11 12 10 9 9 8 8 9 9 9 10 10
20 20 19 20 19 17 17 16 17 19 17 16 16 17 17 17 17 17 17 16 17 18 16 15 16 17 17 18 17 14 14 17 17 17 16 15 14 12 12 11 11 11 11 10 9 11 11 11 10 10 12 10 9 10 10 11 10 9 7 7 8 9 8 8 9 10 10 11 11 11 11 9 9 10 10 10 9 9 8 7 7 8 9 10 10
19 18 18 19 18 18 17 16 17 17 15 15 15 16 16 15 16 16 15 15 17 17 16 17 17 18 18 19 19 15 14 17 17 17 15 13 13 12 11 10 9 9 9 9 9 11 10 10 10 10 10 8 7 9 9 9 10 9 7 8 9 9 8 8 9 10 10 11 10 9 8 8 10 11 10 10 9 9 8 7 8 9 9 9 10
17 16 16 17 18 17 17 16 16 16 14 14 13 15 16 14 14 15 15 14 15 15 15 18 17 16 17 18 19 17 15 16 15 14 13 12 13 12 10 9 9 9 9 9 9 10 10 10 10 9 8 8 7 8 8 9 9 9 8 8 8 9 8 9 9 9 10 10 9 7 6 6 9 11 11 11 11 10 9 8 8 9 8 8 9
17 15 15 16 17 16 15 15 15 15 15 13 13 15 15 13 13 15 15 13 13 13 13 16 15 14 18 19 19 17 14 14 13 12 12 11 11 10 10 9 8 9 9 9 9 10 10 10 10 10 9 8 7 8 8 9 9 9 9 9 8 8 8 9 9 9 10 10 9 7 6 7 10 11 9 10 10 11 10 9 9 9 8 8 8
16 15 15 16 17 16 16 15 15 16 15 14 14 15 14 12 12 14 14 13 12 12 13 13 13 15 18 17 16 14 14 13 11 10 10 10 10 10 10 9 8 8 8 8 9 9 9 9 9 10 10 8 8 9 8 9 9 9 8 8 8 8 8 8 8 8 9 9 10 8 7 8 11 10 8 8 8 9 9 8 8 8 8 8 8
16 15 15 15 16 15 16 16 16 17 15 15 15 15 14 12 12 12 12 13 12 10 10 10 10 13 14 15 13 12 13 12 10 10 9 9 10 10 9 8 8 8 8 7 7 8 8 9 9 10 10 9 9 9 9 10 9 8 8 8 8 8 8 8 8 8 9 9 10 9 8 10 12 9 7 6 6 7 8 8 8 7 8 8 9
15 15 14 14 16 16 17 17 17 17 16 15 16 15 14 13 12 11 12 13 13 11 8 8 9 10 12 14 14 12 11 11 10 10 10 10 10 9 8 7 8 8 7 7 7 7 8 8 9 9 9 9 9 9 9 10 9 8 8 8 8 8 8 8 7 8 9 9 9 10 11 12 11 8 7 6 6 7 8 8 9 9 9 9 8
15 16 14 13 16 17 17 17 18 18 17 16 16 15 15 16 14 12 13 13 12 12 10 9 10 11 11 12 14 12 11 10 10 9 10 11 10 9 9 8 8 7 7 7 7 7 7 7 8 8 9 9 9 9 10 10 9 8 8 8 8 8 8 7 7 7 8 9 9 10 10 12 11 8 8 7 7 8 9 9 10 10 9 8 7
15 16 15 13 15 16 16 17 19 20 20 19 16 15 17 19 15 13 14 13 12 12 12 11 10 11 11 11 13 13 12 12 10 9 9 10 10 10 9 9 8 7 7 7 7 6 6 7 7 7 8 8 9 9 9 9 9 8 8 7 7 8 8 7 7 7 7 8 8 9 9 10 10 8 7 7 7 8 8 8 8 8 6 5 5
15 15 14 12 13 14 15 17 19 20 22 21 17 16 17 18 16 14 14 13 13 13 13 13 10 8 10 11 12 13 12 12 11 9 9 10 11 10 9 8 8 7 6 7 7 6 6 7 7 8 8 9 9 9 9 9 8 8 8 7 7 8 8 7 7 7 7 7 7 8 8 8 9 7 6 5 5 6 6 6 6 6 5 4 4
13 14 14 12 12 13 13 17 19 21 22 19 18 17 16 16 15 15 15 13 13 13 13 13 11 8 10 11 12 13 12 12 12 11 10 10 11 11 9 8 7 6 6 6 6 6 6 7 7 8 8 9 10 10 10 9 8 8 8 7 8 8 7 7 7 7 6 6 6 7 7 7 8 7 5 4 3 4 5 5 5 5 4 4 3
12 12 13 12 13 14 13 15 19 22 22 17 15 16 16 17 15 14 14 13 14 14 13 14 12 10 11 12 12 14 14 13 12 12 12 11 10 10 9 7 7 6 6 6 6 6 6 7 7 8 8 8 10 10 9 9 9 9 8 7 8 8 7 7 7 7 7 6 6 5 5 5 5 5 6 6 6 6 6 5 5 4 4 3 3
13 13 13 12 13 16 15 14 17 20 20 16 14 15 16 16 14 13 14 12 12 13 14 15 13 12 11 12 13 14 14 13 12 12 11 9 9 9 8 6 6 6 6 6 6 6 7 7 7 8 8 9 10 10 9 9 9 9 9 8 8 8 8 8 8 7 7 6 6 5 5 5 4 4 4 6 6 6 7 6 4 4 4 4 4
15 14 14 13 13 15 17 17 16 16 16 15 16 16 15 15 13 13 13 12 10 11 15 16 14 13 12 12 14 14 13 12 12 11 9 8 9 8 7 6 6 7 6 6 6 6 7 8 7 8 8 9 10 11 10 9 10 10 9 9 9 9 10 9 8 8 7 7 6 5 5 5 5 5 3 3 5 6 6 6 5 5 5 5 5
14 14 14 14 14 13 16 19 18 15 14 16 20 18 14 15 14 13 12 11 10 12 16 15 14 13 11 12 13 12 11 11 11 10 9 11 9 8 7 6 6 6 6 6 6 7 7 8 8 7 7 9 10 11 11 10 10 10 10 10 10 10 10 10 9 8 8 7 6 6 6 5 4 5 3 3 4 4 3 5 6 5 6 6 6
14 15 14 14 15 14 13 17 20 20 15 14 19 20 15 14 14 12 12 12 11 13 13 13 14 12 10 11 12 11 10 10 11 10 10 10 9 8 7 8 7 6 6 7 7 7 7 8 8 8 7 8 10 12 13 11 11 11 10 10 10 10 9 9 9 8 8 7 7 6 5 5 4 4 3 3 3 3 2 4 4 4 5 6 6
14 15 15 13 13 13 13 14 17 19 14 14 18 19 15 14 13 13 13 13 12 11 10 10 10 9 8 9 10 9 9 9 10 9 9 9 9 8 8 8 7 6 7 7 7 7 7 8 9 9 9 8 10 14 14 12 12 11 11 10 11 11 10 9 8 8 7 7 7 6 5 4 4 3 2 3 3 3 3 3 4 4 5 6 8
15 16 16 15 13 12 13 15 15 15 13 14 19 18 16 16 14 13 13 14 13 11 9 7 7 7 7 7 7 7 7 7 9 9 9 8 8 8 8 8 7 6 6 7 7 7 7 9 9 9 10 10 11 13 14 14 14 13 12 11 11 11 10 9 8 7 7 7 6 6 6 5 4 3 3 4 5 5 4 4 4 5 4 5 7
15 16 16 16 14 13 13 15 16 17 17 16 18 17 15 15 14 13 13 13 13 11 10 8 7 7 7 6 7 7 7 8 9 9 8 8 8 8 8 8 7 6 6 6 7 8 8 9 10 10 10 11 11 13 15 14 13 13 13 11 10 10 9 8 8 7 7 7 7 7 7 5 5 4 4 5 6 6 6 5 5 5 5 5 6
15 15 16 16 15 14 14 14 15 21 22 19 19 18 14 12 11 11 12 11 11 11 9 9 8 8 7 7 7 8 9 9 9 8 8 7 8 8 8 7 7 7 6 7 8 9 9 9 11 11 11 11 11 14 16 12 11 13 11 8 7 6 7 7 7 7 7 8 7 8 8 7 6 5 5 6 6 6 6 6 6 7 7 7 7
16 16 16 16 16 14 13 13 14 20 23 20 20 20 15 11 9 9 10 9 10 10 9 9 8 8 7 7 7 8 8 7 8 8 7 8 8 8 8 8 7 7 6 8 9 9 9 10 11 11 12 12 11 14 15 10 11 14 8 4 5 5 4 7 8 8 8 8 8 8 8 8 7 6 6 6 6 6 6 6 7 8 8 7 8
18 16 16 16 15 14 13 13 14 17 19 17 18 19 15 13 11 11 10 9 9 10 9 9 8 8 8 7 7 7 7 7 7 7 7 7 8 9 9 9 8 8 7 7 8 9 10 10 11 11 12 12 12 13 13 10 13 17 12 5 4 3 4 8 10 8 7 8 8 8 8 8 8 7 7 6 7 6 6 7 7 8 8 7 8
17 17 16 15 14 14 15 15 14 14 15 16 17 17 16 15 15 15 14 12 11 11 10 10 10 9 8 7 7 7 7 7 7 8 8 7 8 9 9 10 9 9 8 8 8 9 10 10 10 11 11 12 12 11 11 12 12 13 11 5 3 5 8 11 9 6 7 8 8 8 8 8 8 7 7 6 7 7 6 7 8 8 8 8 8
17 17 17 16 16 15 15 16 14 13 14 15 17 17 15 15 16 15 15 13 11 11 10 9 9 9 8 8 8 8 8 8 8 8 8 8 8 9 10 10 10 10 9 8 8 9 10 10 10 11 11 10 12 13 13 12 10 8 7 5 3 9 15 13 8 7 7 7 8 9 8 8 8 7 6 7 7 7 7 7 8 8 8 8 8
17 18 18 17 17 16 15 15 13 12 13 14 17 17 15 14 14 13 12 12 10 10 10 9 9 9 9 9 9 8 8 8 8 8 8 9 9 10 10 10 10 10 9 9 9 9 10 10 10 9 9 8 10 15 16 15 14 11 9 6 3 10 15 11 9 10 8 7 8 8 8 8 8 6 6 7 7 7 7 7 7 8 8 8 8
18 19 18 18 19 18 16 15 13 13 14 14 15 16 14 14 13 12 11 10 9 10 11 10 9 10 10 10 8 8 7 7 7 8 8 9 9 10 10 9 10 9 9 9 9 9 9 9 10 9 9 8 8 12 15 16 16 12 9 7 5 10 13 9 9 11 8 8 8 8 10 9 7 7 6 7 7 7 7 7 7 8 8 8 8
19 19 18 19 19 19 17 15 14 14 13 13 15 15 14 13 12 11 11 10 10 11 11 11 11 10 10 9 9 9 8 8 8 7 7 8 8 9 9 9 9 9 9 9 9 9 8 8 9 9 9 8 8 10 11 11 12 9 7 7 6 10 11 8 9 9 8 9 8 9 12 10 8 7 6 6 7 7 7 7 7 8 8 8 8
18 17 18 19 19 18 17 16 15 14 14 14 15 17 15 13 12 12 12 12 12 12 12 12 12 11 10 10 9 9 9 9 9 8 8 8 8 9 9 9 9 9 9 9 9 9 8 8 8 9 9 8 7 8 9 9 9 9 8 6 5 6 7 5 7 8 9 9 8 9 11 11 10 9 7 6 7 7 7 7 7 7 7 8 8
Wind_Direction
147 146 144 154 155 155 156 153 153 152 152 152 156 157 158 159 158 158 157 155 152 149 143 141 142 145 147 150 150 148 149 142 137 138 136 133 132 130 128 126 127 127 126 124 121 119 116 113 109 103 99 100 101 99 98 95 95 100 96 89 86 84 88 92 95 96 96 96 92 89 84 84 83 83 84 85 86 86 85 84 83 84 86 86 88
144 142 143 151 154 155 154 152 152 151 152 152 155 155 155 157 157 156 155 154 150 146 142 143 145 148 149 151 150 147 147 142 140 142 140 137 136 135 132 130 129 129 127 125 124 121 117 115 112 105 101 100 101 101 103 100 99 104 103 101 96 87 86 90 96 96 97 97 95 91 85 81 79 82 83 84 85 85 84 85 84 83 85 86 85
138 140 141 150 155 154 152 150 150 150 150 150 153 153 154 155 153 153 152 152 148 145 145 146 148 149 150 150 149 148 145 142 143 144 142 140 139 137 135 133 131 130 128 127 126 123 119 117 114 111 107 102 101 101 103 105 110 111 105 105 105 98 91 91 97 98 96 96 94 91 88 81 74 76 78 79 80 81 83 83 83 81 82 81 79
136 138 139 149 154 153 151 149 147 147 147 147 150 151 152 152 152 151 150 150 148 147 148 149 150 151 151 149 149 150 146 144 145 143 143 142 141 138 136 134 133 132 130 129 128 125 122 119 117 114 110 105 101 100 99 103 112 110 104 106 109 107 100 97 98 98 96 96 96 92 90 83 71 69 72 74 75 75 77 77 77 78 79 78 78
136 137 141 147 151 153 152 149 148 146 146 146 147 149 149 150 151 151 150 150 150 150 150 151 152 152 150 149 148 148 146 144 143 140 142 143 142 140 138 137 135 134 132 131 130 129 126 123 121 116 112 106 101 99 96 97 105 110 112 115 114 112 109 106 102 98 97 99 103 100 94 88 74 66 69 77 78 74 73 72 72 71 70 69 71
137 137 141 144 146 152 153 151 150 147 147 147 148 148 148 149 151 151 152 152 152 152 152 152 151 151 149 148 146 145 144 143 141 138 142 144 143 143 141 138 136 136 134 133 132 132 129 127 123 119 115 109 102 97 93 92 100 110 116 120 118 118 117 115 109 100 93 95 102 101 97 94 84 72 68 73 72 70 70 72 74 67 62 60 61
138 137 141 143 144 152 154 152 151 149 148 148 150 149 148 149 151 152 153 154 153 153 153 152 151 150 149 147 145 145 144 143 144 142 143 143 143 144 141 139 139 139 137 134 133 131 130 129 125 122 119 115 106 99 96 92 97 106 113 119 120 122 123 123 119 101 86 88 95 95 95 96 92 80 69 70 70 65 61 68 78 70 62 61 61
138 139 140 141 146 154 155 154 152 151 150 149 151 151 150 151 152 153 155 156 154 154 157 156 152 149 148 149 149 147 144 143 145 144 142 140 140 142 141 143 143 141 138 136 135 133 131 131 129 127 126 123 117 108 103 97 96 103 110 114 114 117 121 125 119 97 85 89 93 92 92 95 96 85 69 71 72 62 52 59 73 70 68 70 68
140 140 141 140 148 155 154 155 154 152 153 152 153 153 153 153 154 155 157 157 155 157 159 155 150 147 148 149 149 147 145 145 144 143 144 142 140 142 143 144 143 140 138 138 138 136 134 133 133 133 132 130 125 117 109 103 98 102 111 112 112 115 114 112 103 87 86 90 90 89 89 92 94 88 74 72 76 73 66 65 69 68 74 74 71
141 142 141 139 149 153 151 152 153 154 154 153 154 155 156 155 155 156 157 156 155 154 151 149 147 149 150 149 149 147 147 145 144 144 149 148 142 142 144 144 144 142 140 142 140 137 138 136 136 136 134 132 129 124 117 108 100 101 111 115 116 115 107 96 88 84 89 90 87 85 84 88 88 86 78 71 77 82 76 74 74 72 76 76 73
142 143 140 140 150 152 149 148 149 152 153 153 154 155 156 155 155 155 156 153 151 150 149 150 152 156 155 153 150 148 148 146 147 148 148 147 144 144 146 148 149 145 145 146 141 139 139 137 138 139 137 132 128 125 120 113 104 103 109 118 120 113 99 87 83 87 91 90 89 89 86 86 86 85 83 78 78 80 78 79 80 78 78 75 72
143 141 140 144 151 151 149 146 144 146 149 151 152 155 156 155 155 153 154 153 153 154 153 155 155 157 157 154 152 150 148 148 150 152 148 145 145 148 149 150 150 146 146 145 143 141 138 142 146 142 136 130 127 124 123 119 110 106 108 118 120 110 96 88 88 91 91 89 89 91 89 87 88 87 87 83 79 78 79 79 78 77 77 74 72
142 140 142 146 151 152 149 146 142 142 142 145 148 153 156 157 156 153 154 156 156 157 156 157 157 156 157 157 157 155 153 152 152 155 155 151 149 148 149 151 150 149 149 149 146 143 147 158 152 140 133 129 129 128 127 124 117 110 109 115 117 109 97 91 94 93 88 88 87 88 89 88 89 89 85 81 79 77 76 75 75 75 77 77 75
141 140 143 146 151 153 150 148 146 143 142 142 144 147 152 155 156 156 157 157 157 158 159 160 160 159 160 161 161 159 157 156 153 153 157 160 159 152 148 150 151 150 151 154 149 148 157 162 150 140 133 129 132 131 129 126 120 113 111 114 113 104 93 88 94 93 88 88 89 90 89 86 87 92 89 84 85 83 80 80 79 78 80 79 74
143 142 145 146 150 153 152 151 150 147 146 145 144 145 148 152 156 157 158 159 158 160 162 162 163 163 162 163 162 161 158 158 156 152 151 155 161 161 157 156 158 156 155 157 156 155 154 152 148 139 130 130 132 130 128 124 120 114 110 111 111 102 92 89 94 94 91 89 87 87 88 87 91 95 90 86 87 85 83 83 82 82 81 78 74
145 144 145 146 148 152 154 155 154 150 148 148 147 148 150 154 157 158 159 160 161 162 165 164 164 164 163 162 161 160 159 160 159 153 148 145 150 160 168 171 170 161 157 160 158 159 158 153 148 134 128 133 132 129 125 121 118 113 109 108 109 105 98 98 97 94 92 89 88 88 89 90 94 94 88 86 87 86 87 85 84 84 81 78 77
146 146 147 150 150 152 156 158 157 153 152 152 152 152 154 157 158 158 159 161 163 165 167 168 166 163 162 160 159 160 160 162 161 156 152 148 145 150 161 174 179 165 157 160 157 163 166 154 144 131 128 133 134 130 122 118 117 111 106 102 106 108 102 97 94 93 91 89 89 89 91 91 92 92 88 87 86 86 86 87 87 86 83 81 78
152 151 151 153 154 155 156 159 159 156 156 156 157 157 158 162 162 161 161 162 164 165 165 167 168 166 165 163 161 163 164 164 162 159 156 153 150 150 151 161 174 169 160 159 159 165 164 150 144 135 128 134 136 131 124 119 115 111 105 100 102 100 94 90 91 94 91 88 89 89 94 97 96 93 89 88 87 88 89 88 90 88 86 84 83
158 156 155 157 158 159 157 159 160 158 158 158 160 162 163 166 167 166 166 166 167 168 165 165 168 168 168 166 164 165 168 166 163 161 157 153 152 156 152 149 160 166 164 162 161 162 160 154 146 136 129 134 136 134 129 121 115 110 104 102 94 82 80 85 90 93 91 88 90 92 99 101 96 95 93 92 91 91 92 90 90 92 89 87 86
163 162 161 161 160 160 160 162 163 161 158 157 160 163 166 167 168 170 171 171 171 173 169 166 166 169 169 165 165 165 165 161 158 156 153 152 152 153 152 150 157 161 162 162 162 159 158 158 148 138 132 133 138 138 133 125 119 111 105 99 83 72 74 84 85 88 90 88 92 98 103 102 97 99 96 94 95 95 97 95 92 93 91 89 89
167 169 167 164 162 163 164 165 165 163 158 156 158 162 166 166 166 169 169 171 171 172 170 167 164 169 171 168 166 160 158 154 149 149 150 151 151 150 149 151 158 160 162 164 166 163 160 159 152 143 138 140 143 143 140 133 124 116 107 88 76 77 84 86 85 87 91 91 95 100 101 99 96 100 98 95 96 97 99 98 94 94 94 93 93
171 174 173 170 167 167 168 167 166 165 161 157 156 162 165 163 166 168 168 168 169 170 168 167 165 169 171 168 165 157 155 151 145 145 146 148 146 145 148 150 154 159 165 170 172 167 161 159 155 147 144 144 143 145 147 141 132 124 106 85 82 93 93 91 92 89 91 94 97 101 102 96 88 90 97 101 100 101 100 97 97 94 95 95 94
174 177 177 176 173 171 170 167 166 167 164 157 155 161 164 164 168 169 168 168 171 170 166 168 168 169 170 166 160 156 157 152 145 145 143 142 140 139 144 145 149 161 170 172 173 166 160 161 158 151 147 143 142 149 152 147 140 130 111 91 98 106 99 100 99 94 94 97 103 106 107 104 92 83 86 92 96 101 100 97 99 95 94 95 94
177 179 179 180 178 173 171 169 169 168 164 159 158 162 165 169 171 170 169 171 174 171 168 173 172 171 174 169 160 155 156 153 147 146 142 138 137 137 141 142 148 162 168 166 169 166 161 162 164 157 152 149 148 155 157 152 147 140 131 114 112 111 108 105 100 99 98 102 108 109 110 108 100 89 81 79 81 91 96 96 95 94 91 90 94
179 180 180 182 183 176 172 171 170 169 167 163 163 165 168 172 173 171 171 175 178 175 177 180 177 176 177 171 162 154 150 150 146 143 139 137 139 139 140 140 142 148 152 152 163 169 166 166 169 165 160 163 161 160 160 157 152 146 138 126 120 118 112 106 105 104 103 107 109 111 114 110 102 94 82 78 79 86 94 94 91 91 90 86 89
181 183 181 182 184 180 173 171 168 169 172 170 169 170 171 173 175 175 175 181 184 180 184 186 183 176 170 167 162 154 148 145 144 143 139 140 143 141 139 138 140 143 148 153 162 174 177 175 177 176 175 180 174 162 164 162 155 148 138 129 124 121 115 111 113 111 108 109 112 112 100 98 105 96 82 80 80 80 86 91 94 96 96 89 83
184 184 182 181 182 178 172 172 170 173 177 177 176 175 176 177 177 176 176 183 187 182 186 191 188 174 164 165 162 152 144 141 140 141 137 140 142 139 137 137 142 145 149 156 164 176 182 180 179 179 179 185 180 169 168 163 156 150 140 131 125 121 117 115 115 114 113 113 117 110 81 87 106 99 87 83 75 73 78 87 91 91 94 94 88
186 184 182 179 177 173 172 176 176 176 177 178 182 180 179 180 178 177 177 180 181 184 193 192 183 171 163 163 162 152 144 140 140 138 134 138 138 136 136 136 143 146 147 156 165 172 174 173 172 176 183 185 178 174 170 161 155 150 139 131 126 120 115 113 114 117 116 118 119 107 90 97 101 97 92 91 82 73 76 85 91 91 92 94 93
187 183 181 177 174 171 173 179 177 176 176 179 187 186 182 180 176 175 179 179 177 184 190 185 172 160 157 156 154 148 142 140 141 139 135 136 134 134 136 137 145 148 150 156 160 161 162 165 170 177 182 181 174 173 169 161 155 149 140 132 126 119 114 113 115 115 114 120 119 108 106 102 94 92 92 96 98 82 77 86 96 100 98 99 97
189 182 181 179 175 172 175 178 174 176 180 184 189 186 183 180 174 174 176 174 180 184 171 169 167 153 152 152 145 140 137 138 140 137 135 135 134 138 141 144 150 152 152 154 153 154 158 163 171 178 177 176 172 168 165 160 155 147 140 134 126 120 117 114 115 113 112 117 115 110 114 109 102 104 110 112 101 84 81 90 96 98 100 102 98
192 186 187 185 178 175 175 175 175 177 180 190 192 185 183 182 177 176 172 165 175 183 174 172 172 158 152 147 142 139 135 135 136 135 139 140 142 147 148 150 153 153 150 150 150 152 159 164 170 175 175 173 164 161 161 159 158 150 143 136 128 123 119 116 115 114 114 115 111 110 115 114 112 110 112 112 101 94 91 92 95 96 99 100 94
195 194 193 188 181 176 170 172 181 183 185 192 191 186 188 184 177 172 168 165 170 178 180 178 172 163 157 149 143 138 135 138 137 138 144 147 151 154 152 151 156 157 151 148 150 152 156 157 162 168 168 163 157 159 159 159 162 153 144 137 129 126 122 119 117 114 115 118 118 117 116 115 114 109 105 100 101 108 103 100 104 102 104 100 89
196 198 197 188 181 174 167 174 186 191 195 196 190 189 191 183 175 169 165 164 170 174 178 175 165 161 160 155 145 138 138 141 143 147 151 155 158 157 155 156 161 163 156 151 151 152 151 150 154 159 159 159 156 156 157 160 163 151 144 139 129 125 122 122 120 117 119 119 120 122 123 121 118 112 105 97 97 107 105 107 110 99 90 82 69
198 200 199 188 181 173 167 176 186 194 198 194 188 187 183 180 177 167 163 165 169 172 177 176 169 161 157 157 151 146 146 144 148 154 157 163 163 161 160 162 168 170 163 157 154 153 150 152 157 156 154 158 157 159 164 162 159 150 146 140 127 121 121 124 122 124 123 117 119 125 129 128 126 118 101 89 85 94 97 97 96 87 72 61 47
197 200 198 186 181 179 171 175 189 200 199 188 183 181 173 178 178 170 170 172 174 177 179 181 183 178 160 159 160 156 155 153 154 158 161 168 168 164 164 169 172 173 172 165 159 159 159 161 164 160 156 159 158 162 166 159 154 151 145 138 128 124 124 125 128 131 128 123 123 127 123 118 127 126 107 101 101 102 102 98 95 96 87 70 54
194 198 195 182 180 184 178 173 185 196 199 190 180 180 177 177 178 177 179 176 179 187 187 187 191 188 171 163 164 160 160 158 159 161 161 170 177 169 169 175 172 173 182 174 163 166 167 167 168 166 162 159 159 161 163 157 152 147 140 136 132 130 131 132 135 136 134 133 128 124 117 110 117 119 104 105 112 107 97 95 95 91 85 73 64
192 193 193 187 180 182 185 182 183 188 192 193 188 184 179 178 183 184 182 181 183 189 191 192 193 184 169 165 166 162 162 161 161 158 162 185 187 172 168 173 171 176 186 176 169 172 170 169 167 166 168 162 158 158 159 154 148 146 142 137 135 136 136 137 140 141 141 139 133 128 120 113 118 114 100 95 101 98 91 90 88 77 70 69 70
186 184 188 195 188 178 179 177 183 189 182 190 198 194 180 177 186 186 187 191 184 181 186 188 191 182 163 161 164 159 159 162 157 154 177 198 186 167 165 166 170 175 180 177 175 173 170 172 166 161 167 166 162 160 157 152 148 147 144 138 136 139 139 140 143 146 144 139 132 127 119 114 111 111 108 96 93 102 100 78 73 68 64 67 70
185 184 183 192 194 181 167 161 177 191 177 174 190 193 186 179 182 186 196 202 189 183 185 180 181 180 164 159 157 154 160 163 156 159 188 194 173 163 164 164 167 170 179 181 176 172 167 168 167 160 158 162 163 160 155 151 150 148 145 141 141 141 140 143 145 143 138 133 130 123 121 119 109 104 105 104 104 114 102 71 71 72 66 65 62
189 191 182 181 185 182 173 159 172 191 179 157 171 184 188 184 185 188 194 197 187 183 187 179 173 168 161 160 154 152 160 161 158 171 190 180 164 163 164 166 169 172 183 184 177 174 165 166 168 161 154 152 155 157 154 150 145 138 137 139 142 143 137 137 139 136 132 130 130 125 119 118 111 107 105 113 121 113 103 95 94 85 70 60 54
190 191 184 178 174 175 181 167 164 183 184 168 170 179 185 185 191 192 190 186 179 180 183 175 166 160 157 159 153 154 166 166 165 181 185 169 161 162 163 170 173 178 186 182 177 171 165 167 165 162 161 156 154 158 157 150 143 137 134 130 125 125 127 131 133 134 136 135 134 130 124 123 120 113 107 116 119 110 99 87 81 77 73 63 54
188 187 186 184 177 176 183 174 162 163 173 185 184 183 185 187 192 193 190 179 171 178 179 169 167 161 159 161 158 165 177 178 178 183 177 165 164 163 167 174 178 182 179 174 172 166 166 168 165 166 168 165 161 161 158 153 149 144 138 129 110 102 112 124 129 133 139 137 134 131 128 132 135 128 125 122 111 98 88 79 78 75 71 72 70
187 185 186 184 181 183 183 175 163 155 163 186 195 190 188 189 193 191 187 176 169 177 174 170 172 164 163 169 168 173 178 180 181 178 172 172 172 170 174 179 181 182 176 171 170 168 171 173 173 172 170 169 166 165 166 160 150 143 132 132 128 114 119 125 125 127 128 127 128 131 133 139 139 130 124 114 97 86 82 80 82 81 75 76 80
191 188 185 183 182 187 181 169 167 163 168 183 190 188 189 189 185 181 179 171 167 170 166 167 171 169 170 172 173 177 179 181 181 180 182 183 179 178 181 182 184 186 182 179 175 174 176 177 179 177 173 171 167 172 177 171 157 149 132 119 140 141 145 140 129 117 116 119 119 125 130 133 130 120 114 105 92 85 83 83 83 84 84 83 82
194 189 185 183 179 180 175 168 169 169 171 178 183 183 185 183 174 170 173 169 165 168 168 167 172 177 175 174 178 180 184 184 184 189 190 185 181 183 185 184 188 190 189 188 181 179 181 182 183 181 180 178 172 174 178 178 166 156 148 136 137 153 158 145 133 114 113 117 114 118 120 122 120 114 109 102 97 91 86 88 88 90 93 88 83
193 190 184 181 175 169 167 169 168 168 169 174 182 182 180 178 172 171 174 172 171 174 175 172 176 181 177 176 179 180 186 186 186 190 184 180 179 180 185 188 189 190 192 193 187 184 186 188 187 185 190 188 173 168 177 181 176 168 164 157 146 165 161 152 144 128 124 120 113 115 114 115 116 111 105 101 100 96 92 92 89 91 93 87 85
188 186 184 181 172 161 160 166 166 167 170 174 181 182 179 177 174 175 177 177 175 174 174 174 175 177 172 173 176 179 187 187 186 185 178 179 179 178 183 185 187 190 192 195 191 188 191 191 189 189 197 192 169 169 184 181 179 194 188 164 147 164 168 167 154 143 140 130 121 115 110 113 112 103 99 100 100 97 94 95 93 91 89 87 89
182 181 182 182 172 161 159 163 164 168 171 172 176 181 180 177 178 180 180 179 175 167 165 164 166 167 168 174 177 180 188 190 187 184 178 179 181 179 179 181 185 189 191 196 194 190 193 191 188 189 195 193 175 177 184 181 184 196 189 178 174 165 175 180 162 157 154 141 134 121 114 118 113 101 94 97 101 99 95 95 97 95 93 93 93
180 177 177 178 172 164 160 157 158 162 165 169 175 183 182 177 180 183 179 175 168 162 158 158 163 166 166 171 174 175 182 185 184 184 181 180 181 176 174 178 181 185 189 194 194 192 192 187 183 185 186 190 190 183 183 187 194 194 180 182 180 166 176 181 169 172 162 144 146 136 135 138 124 106 97 99 103 101 101 100 100 102 100 100 99
182 177 174 176 171 165 162 161 163 164 166 171 177 182 181 178 182 182 176 169 163 162 160 160 165 166 165 167 171 173 174 175 176 179 179 178 178 172 173 178 177 181 186 189 193 190 187 184 180 181 183 187 186 180 187 198 203 199 187 191 185 169 174 176 177 180 160 145 148 147 150 151 136 117 109 112 115 114 112 109 108 108 106 106 106
179 177 175 176 171 164 165 169 171 170 169 171 174 176 177 180 182 180 176 169 165 165 163 163 163 162 165 167 172 172 168 169 170 170 172 173 172 170 174 176 175 180 183 186 193 190 186 183 178 177 184 192 185 181 197 209 213 212 203 204 198 167 165 184 195 181 157 148 145 149 154 151 140 131 126 123 128 130 125 122 118 116 114 111 109
Height
784 786 789 790 792 794 796 796 797 797 797 798 799 800 801 803 805 806 808 810 811 812 812 814 816 817 817 818 818 819 820 821 822 823 824 825 825 826 826 827 828 828 829 829 830 830 831 831 831 831 831 831 831 831 831 831 831 831 831 831 830 830 830 830 830 830 831 831 831 832 831 831 831 831 831 831 830 830 830 831 831 831 830 831 831
784 787 789 791 793 794 796 796 797 798 798 799 800 801 802 804 805 807 809 811 813 813 814 816 817 818 819 819 819 820 821 822 823 824 825 826 827 827 828 828 829 829 830 831 831 831 832 832 832 832 833 832 832 832 832 832 832 832 832 832 832 832 832 832 832 832 832 832 833 833 833 833 833 833 833 833 832 832 832 833 833 833 833 833 833
785 788 790 792 794 795 796 796 798 798 799 800 801 802 803 805 806 809 810 812 814 815 816 817 819 819 820 820 821 821 822 823 824 825 826 827 828 829 829 829 830 830 831 832 832 833 833 833 834 834 834 833 833 833 833 833 833 833 833 833 833 833 834 834 833 833 834 834 834 834 834 835 835 835 835 835 834 834 835 835 834 835 835 835 834
786 789 791 793 794 796 796 797 798 799 800 801 802 803 804 806 808 810 811 813 815 816 817 818 820 820 821 821 822 822 823 824 825 826 827 828 829 830 830 830 831 831 832 833 833 834 834 834 835 835 835 835 835 834 834 834 834 834 834 834 834 835 835 835 835 835 835 835 835 836 836 837 837 837 837 837 837 837 837 837 837 837 837 837 836
788 790 792 794 796 796 797 798 799 800 801 802 803 805 806 807 809 811 812 814 816 817 818 819 820 821 822 822 823 823 824 825 826 827 828 829 830 831 832 832 832 833 833 834 834 835 835 836 836 836 836 836 836 835 835 835 835 835 835 835 836 836 836 837 837 836 836 836 836 837 838 838 839 840 840 839 839 839 839 839 839 839 839 838 838
789 791 793 795 797 797 797 799 800 800 801 803 804 805 806 808 809 811 813 815 816 818 819 819 820 822 823 824 824 825 825 826 827 828 829 830 831 832 833 833 834 834 835 835 835 836 836 836 837 837 837 837 837 837 836 836 836 836 836 836 837 837 837 838 838 838 837 837 837 838 839 840 841 842 842 842 841 841 840 840 840 840 840 840 839
790 792 794 795 797 797 798 799 800 801 802 803 805 806 807 808 810 812 814 815 817 818 819 820 821 823 824 825 825 826 826 827 828 829 830 831 832 833 834 835 835 835 836 836 836 836 837 837 837 838 838 838 838 838 838 837 838 837 838 837 838 838 839 839 839 839 839 839 840 840 841 841 843 844 844 844 844 843 843 842 842 842 841 841 841
791 793 795 796 797 798 799 800 801 802 803 804 805 807 808 809 811 812 814 815 817 819 820 821 822 824 825 826 826 827 827 828 829 830 831 832 833 834 835 836 836 836 837 837 837 837 838 838 838 839 839 839 839 838 838 839 839 839 839 839 839 839 840 841 841 841 840 841 842 842 843 843 844 846 846 846 846 846 845 844 843 843 843 843 843
792 794 795 796 797 798 800 800 801 802 803 805 806 807 808 810 811 813 815 816 818 819 821 822 823 825 825 826 827 828 828 829 830 831 832 833 835 835 837 837 837 838 838 839 838 839 839 839 840 840 840 840 840 840 840 840 840 840 839 840 840 840 841 842 842 842 843 843 844 844 844 845 846 847 848 848 848 847 847 846 845 845 845 844 844
792 794 796 797 798 799 800 801 801 802 804 805 807 808 809 811 812 814 815 817 819 820 822 823 824 825 826 827 828 829 829 830 831 832 833 834 836 837 838 838 839 839 840 840 840 840 840 841 841 840 841 841 841 841 841 841 841 841 840 840 841 842 842 842 843 844 844 845 845 845 845 846 847 848 849 849 849 848 848 848 847 847 847 846 846
792 795 797 798 799 800 801 801 802 803 805 806 808 809 810 812 813 815 816 818 820 822 823 824 825 826 826 827 828 829 830 831 832 833 834 835 836 837 838 839 840 840 841 841 842 842 842 842 842 842 842 841 842 842 842 842 842 842 842 842 842 842 843 842 844 846 846 846 846 847 847 848 848 849 850 850 850 850 850 850 849 849 848 848 847
793 795 797 799 800 801 801 802 803 804 806 807 809 810 811 813 815 816 818 819 821 822 823 824 826 826 827 828 829 830 831 832 833 834 835 835 836 838 839 839 840 841 841 842 842 843 844 843 843 843 842 842 843 843 843 843 843 843 843 843 843 843 843 843 846 848 847 848 848 848 849 849 850 850 851 851 851 851 851 851 851 850 850 849 849
794 796 798 800 801 802 802 803 804 806 807 809 810 811 813 814 816 817 819 820 821 823 824 825 826 827 828 829 830 831 831 832 833 834 835 836 837 837 838 840 840 841 842 842 843 844 844 844 844 844 844 844 844 844 844 844 845 845 844 844 844 844 844 844 848 849 849 849 849 850 850 850 851 851 852 852 852 853 853 852 852 851 851 851 851
795 797 798 800 802 803 803 805 806 807 808 809 811 812 813 814 816 818 819 821 822 823 824 826 827 828 828 829 830 831 831 832 833 834 835 836 837 838 839 840 841 842 843 843 844 844 844 844 845 845 845 845 845 845 845 846 846 846 846 845 845 845 845 847 849 850 850 851 851 851 851 852 852 852 853 853 854 854 854 854 853 853 853 852 852
795 797 799 801 803 805 805 806 806 808 809 810 811 812 814 815 817 818 820 821 823 824 825 826 827 828 829 830 831 831 832 832 833 834 835 836 837 839 839 840 842 843 843 844 844 845 845 845 846 846 846 847 847 847 847 847 847 847 847 847 847 846 846 849 851 851 851 852 852 853 853 853 853 853 854 854 855 855 855 854 854 854 854 854 853
796 797 800 802 803 806 807 807 808 809 809 811 812 813 815 816 818 819 821 822 823 825 826 826 827 829 830 830 831 831 832 833 834 835 836 837 838 839 840 842 842 843 844 845 845 845 845 846 846 847 847 848 848 848 848 849 849 849 849 849 848 847 847 850 851 852 852 853 854 854 854 854 854 855 855 855 855 855 855 855 855 855 855 855 855
797 798 800 802 803 805 807 808 808 809 811 812 813 814 816 817 818 820 821 823 824 825 826 827 828 829 830 831 831 832 833 833 834 835 836 837 838 839 841 842 843 844 845 845 846 846 846 847 847 848 848 849 849 849 849 850 850 850 851 850 850 849 849 850 852 852 853 854 855 855 856 856 856 856 856 856 856 856 856 856 856 856 856 856 856
798 799 800 802 803 805 807 809 809 810 812 813 814 815 816 818 819 820 822 823 824 825 826 827 828 829 830 831 831 832 833 834 835 836 837 837 838 839 841 842 844 845 845 846 847 847 847 848 848 849 849 850 850 850 850 851 852 852 852 852 852 852 850 851 853 853 854 855 855 856 857 857 857 857 857 857 857 857 857 857 857 856 856 857 857
798 799 800 802 803 805 807 808 810 810 812 813 815 816 817 818 820 821 822 823 824 825 826 827 828 829 830 831 831 832 833 834 835 836 837 838 839 840 841 842 844 845 846 847 847 848 848 849 849 850 850 851 851 851 851 852 853 853 853 853 854 853 852 853 855 855 855 856 856 857 858 858 858 858 858 858 858 858 858 858 857 857 857 857 857
798 799 801 802 803 805 806 808 809 810 812 813 815 816 818 819 820 821 822 823 824 825 826 827 828 829 830 830 831 832 833 834 835 836 837 838 839 840 841 843 844 845 847 847 848 849 849 850 850 851 851 852 852 852 852 853 853 854 855 855 854 854 855 856 856 856 856 857 857 858 858 859 859 859 859 859 859 859 859 859 858 858 858 858 858
798 799 800 802 803 805 806 808 809 811 812 813 815 816 818 819 821 822 823 824 824 826 826 827 828 829 829 830 831 832 833 834 835 836 837 838 839 841 842 843 844 846 847 848 848 849 850 851 851 852 852 852 853 853 853 853 854 855 856 855 855 856 857 857 857 857 858 858 859 859 859 859 860 860 859 859 859 860 860 860 860 859 859 858 858
797 798 800 801 802 804 806 807 809 810 812 813 815 816 818 819 821 822 823 824 825 826 827 828 828 828 829 829 830 831 833 834 836 837 837 838 839 841 842 843 844 846 847 848 848 849 850 851 852 853 853 853 853 853 854 854 855 856 856 856 856 858 859 858 858 859 859 860 860 860 860 861 861 860 860 860 860 860 860 860 860 860 860 859 859
795 797 799 800 802 804 805 807 808 810 812 813 815 817 818 819 821 822 823 824 825 826 827 828 828 828 828 829 830 831 833 834 835 836 837 839 840 841 842 843 845 846 847 848 849 850 850 851 852 853 854 854 854 854 855 855 856 856 857 857 858 859 859 859 859 860 860 861 861 861 861 862 861 861 861 861 861 861 861 861 861 861 860 860 860
794 795 797 800 801 803 805 807 809 811 812 814 816 817 818 820 821 821 823 823 824 826 826 827 827 827 828 828 829 831 832 833 835 836 837 839 840 841 842 844 845 846 847 848 849 851 852 852 853 854 854 855 855 855 856 856 856 857 858 858 859 860 860 860 860 860 862 862 862 862 862 862 862 862 862 862 862 861 862 862 862 862 861 861 861
792 795 797 799 801 802 804 807 809 811 813 815 816 817 818 819 820 821 822 823 824 825 825 825 825 825 827 828 829 830 832 833 835 836 838 839 840 842 843 844 846 847 848 849 850 851 852 853 854 854 855 855 855 856 856 857 857 858 859 859 860 860 860 861 861 862 862 863 863 863 863 863 863 863 863 863 862 862 862 862 863 863 862 862 862
792 794 796 798 800 802 804 807 810 811 813 815 816 817 818 819 820 821 822 822 823 824 824 824 824 824 827 829 829 830 832 833 834 836 838 839 841 842 843 845 846 847 848 849 850 851 852 853 854 855 855 855 855 856 856 857 858 858 859 859 860 860 861 861 862 863 863 864 864 864 864 864 864 864 864 863 863 863 863 863 863 864 864 863 863
791 793 796 798 800 802 805 807 809 811 813 815 816 817 817 819 819 820 821 822 822 823 823 823 824 825 827 829 830 831 832 833 834 836 838 839 841 842 843 845 846 847 848 849 851 851 852 853 853 854 855 855 855 856 856 857 858 858 859 859 860 861 861 862 862 863 864 864 865 865 865 865 865 865 865 864 864 864 864 864 864 864 865 864 864
791 793 795 797 799 802 804 807 809 811 813 814 816 817 817 819 819 820 821 822 822 822 822 822 823 825 827 828 829 831 831 833 834 836 838 839 841 842 843 845 846 847 848 849 850 851 852 852 853 853 854 854 855 855 856 857 858 858 859 860 860 861 861 862 863 863 864 865 865 865 866 866 866 866 866 866 865 865 865 865 865 865 865 865 865
791 793 795 797 799 801 804 807 809 811 812 814 815 816 817 818 819 820 821 822 822 822 821 821 822 825 827 828 829 830 831 833 835 837 838 840 841 842 843 845 846 847 847 849 850 850 851 852 852 853 853 854 854 855 856 857 858 859 859 860 861 861 862 862 863 864 864 865 865 865 866 867 867 867 867 867 867 866 866 866 866 866 866 866 866
791 793 796 797 799 801 804 806 808 810 812 813 815 816 817 818 819 820 821 822 823 822 821 822 822 824 826 828 829 830 832 833 835 837 839 840 841 842 844 845 846 847 847 848 849 850 851 851 852 852 852 853 854 855 856 857 858 859 860 860 861 861 862 863 863 864 865 866 866 866 867 867 868 868 868 868 868 867 867 867 867 867 867 867 867
792 793 795 797 799 801 803 805 807 809 811 813 814 815 817 818 819 820 821 823 823 822 822 822 823 824 826 829 830 831 832 834 835 837 839 840 842 843 844 845 846 847 847 848 848 849 850 851 851 851 852 852 853 854 856 857 858 859 860 861 861 862 862 863 863 864 865 866 866 866 867 867 868 868 868 868 868 868 868 868 868 868 868 868 869
792 793 795 797 799 800 802 804 806 808 810 811 812 815 816 818 819 820 822 824 824 823 823 822 824 825 827 829 831 831 832 833 835 838 840 841 842 843 844 845 846 846 847 848 848 849 850 851 851 851 852 852 853 854 855 856 857 858 860 861 861 861 862 863 864 865 865 866 866 867 868 868 868 868 869 869 869 869 869 869 869 869 869 869 869
792 793 795 797 799 801 803 804 806 807 807 809 812 815 817 818 820 821 822 824 824 824 824 824 825 827 828 829 830 830 832 833 835 838 841 842 843 844 844 845 846 846 847 847 848 850 850 851 851 852 852 853 854 855 855 856 857 858 860 861 861 862 862 863 864 865 866 866 867 867 868 868 869 869 869 869 869 870 870 870 870 870 870 870 870
792 793 795 797 799 801 803 804 806 806 807 810 812 815 817 819 821 821 822 823 824 824 825 825 825 827 828 829 830 830 832 834 836 838 841 842 843 843 844 845 845 846 846 847 849 850 850 851 851 852 852 853 854 855 856 856 857 858 860 861 861 862 862 863 864 865 866 867 868 868 868 868 869 870 870 870 870 870 871 870 870 870 870 870 870
791 793 795 797 799 801 803 804 805 806 808 811 813 815 817 819 820 821 822 823 824 824 825 825 826 828 829 830 831 831 832 834 836 837 839 841 842 843 844 844 845 846 846 847 849 850 851 851 851 852 852 853 854 855 855 856 858 859 860 860 861 861 862 863 864 865 866 867 868 868 868 868 869 870 870 871 871 871 871 871 871 871 870 870 870
791 793 794 796 798 800 803 804 805 807 809 812 813 814 816 819 820 821 821 822 824 824 825 826 826 828 830 830 830 831 833 834 835 836 838 841 843 842 843 843 844 845 846 847 849 850 850 851 851 852 852 853 853 854 856 857 858 859 859 860 861 861 863 864 865 866 867 868 868 868 869 869 869 870 870 870 871 871 871 871 871 871 871 871 870
790 792 794 796 798 800 802 804 806 808 810 812 813 814 816 819 820 821 821 822 823 824 824 825 827 828 829 829 829 830 832 833 835 835 837 841 842 842 842 842 843 845 846 847 848 849 850 851 851 852 852 852 853 854 856 857 858 858 859 860 860 862 862 864 865 866 867 868 868 869 869 869 870 870 870 871 871 871 871 871 871 871 871 871 870
790 791 793 795 797 800 801 802 805 808 810 812 813 814 816 819 820 821 821 822 823 823 823 825 826 827 827 827 828 830 831 832 834 834 838 841 841 841 841 842 843 844 845 847 848 849 849 850 851 851 852 852 853 854 855 856 857 858 859 860 861 862 863 864 865 866 867 868 868 869 869 870 870 871 871 871 872 872 871 871 871 871 871 871 871
789 791 793 795 797 800 801 802 804 806 809 811 813 814 816 818 820 821 821 822 822 822 823 824 825 825 825 826 828 830 831 831 832 835 839 840 839 840 841 841 843 844 845 847 848 849 849 850 850 851 852 852 853 854 854 855 856 858 859 860 862 863 863 864 866 866 867 868 868 869 869 870 870 871 872 872 872 872 872 872 872 872 872 871 871
789 790 792 794 796 799 801 803 804 806 809 812 814 816 818 819 820 821 821 822 823 822 822 823 824 824 825 826 828 830 831 831 832 835 838 839 839 840 840 841 843 844 845 846 847 848 848 849 850 850 851 851 853 853 854 854 856 858 859 861 862 864 865 865 866 866 867 868 869 869 870 870 871 871 872 872 873 873 873 873 873 873 873 872 872
788 789 791 793 795 798 800 802 804 807 810 813 815 816 817 819 819 820 820 821 822 822 822 823 824 824 825 826 828 830 830 831 833 836 838 838 838 839 840 841 842 844 845 846 847 848 848 849 849 850 850 851 852 853 853 854 856 857 860 863 865 865 866 866 867 867 867 868 869 869 870 870 871 871 872 872 873 873 873 873 873 873 873 873 873
787 788 790 792 795 797 800 802 804 807 811 813 814 815 816 817 818 818 819 819 820 822 822 823 825 825 826 827 828 829 831 832 834 835 836 837 838 839 840 841 842 843 844 845 847 847 847 848 849 849 850 850 851 852 852 853 855 856 860 864 866 867 867 867 867 868 868 868 869 869 870 871 871 872 872 873 873 873 874 874 873 873 874 874 874
787 788 789 791 794 796 799 802 804 807 810 811 811 813 815 816 817 817 817 818 819 821 822 823 825 826 827 827 828 830 831 833 834 835 836 837 838 839 840 841 842 843 844 845 846 847 847 848 848 848 849 849 850 851 852 853 854 856 859 862 864 866 868 868 868 868 868 868 869 869 870 871 871 872 873 873 874 874 874 874 874 874 874 874 875
786 787 788 790 792 795 798 801 803 805 808 809 810 812 815 816 817 817 817 818 819 821 822 824 825 826 827 828 829 830 832 833 834 835 836 836 837 839 840 841 842 843 843 844 845 846 846 847 848 848 848 848 849 851 852 853 854 855 858 860 862 864 866 867 867 868 868 868 869 870 871 871 872 873 873 874 874 874 875 875 875 875 875 875 875
784 786 787 789 791 793 796 799 802 804 806 809 811 812 815 816 816 817 818 818 820 821 822 824 825 826 828 828 830 831 832 833 833 835 835 836 837 838 840 841 842 842 843 844 845 845 846 846 847 847 848 848 849 850 852 853 854 853 855 858 861 862 862 863 865 867 868 869 869 870 871 872 872 873 874 874 875 875 875 876 876 876 876 876 876
783 784 786 788 790 792 795 798 800 802 805 807 810 811 813 814 814 816 817 817 819 820 822 823 825 826 827 829 830 831 832 832 833 834 835 836 837 838 839 840 841 842 842 843 844 844 845 845 846 847 847 847 848 850 851 852 854 854 854 856 858 859 858 860 863 866 869 870 870 871 872 872 873 874 874 875 875 876 876 876 876 877 877 877 877
782 783 785 787 789 790 793 796 798 800 803 806 808 810 811 812 813 814 815 817 818 820 822 824 825 826 827 829 830 830 831 832 833 834 835 836 837 838 839 840 841 841 842 842 843 844 844 845 845 846 847 847 848 850 851 852 855 855 855 855 856 856 856 857 859 863 866 869 871 872 873 873 873 874 875 875 876 876 877 877 877 877 877 877 878
780 782 784 786 787 789 792 795 797 799 802 804 806 808 810 811 813 814 815 816 818 820 822 824 825 826 827 828 829 830 831 831 832 833 834 835 836 837 838 839 840 841 841 842 842 843 843 844 845 846 846 847 849 850 850 852 855 855 854 854 855 855 856 856 857 858 860 865 870 871 873 874 874 875 876 876 877 877 877 877 878 878 878 879 879
779 781 783 784 786 788 791 794 796 799 801 803 806 808 810 811 813 814 815 817 818 820 822 823 825 826 827 828 828 830 830 831 832 832 833 835 835 836 838 839 840 840 841 841 842 842 843 844 845 846 847 847 848 848 849 851 852 852 852 853 853 854 856 856 857 857 857 861 866 869 872 874 875 876 876 877 877 877 877 878 878 879 879 880 880
779 781 782 784 785 787 790 793 796 798 801 803 805 807 809 811 812 814 815 817 819 820 822 823 824 825 827 828 828 829 830 831 832 832 833 834 835 836 837 838 839 839 840 841 841 842 843 844 845 846 846 847 848 848 849 850 851 851 852 853 853 853 855 857 856 855 855 858 863 866 869 871 873 875 877 877 877 878 878 878 879 879 880 880 881
781 782 783 784 785 786 789 793 796 798 800 802 805 807 809 811 812 814 815 817 818 820 821 822 824 825 826 827 828 829 830 830 831 832 833 834 834 835 836 837 838 839 840 840 841 841 842 843 844 845 846 847 848 849 850 850 851 852 853 854 853 853 856 857 856 855 855 857 861 864 867 868 871 874 876 877 878 878 878 879 879 880 881 881 882